Regional Weather Roundup
Issued by NWS

Home | Current Version | Previous Version | Graphics & Text | Print | Product List | Glossary Off
Versions: 1 2 3 4 5 6 7 8 9 10 11 12 13 14 15 16 17 18 19 20 21 22 23 24 25 26 27 28 29 30 31 32 33 34 35 36 37 38 39 40 41 42 43 44 45 46 47 48 49 50

000
ASUS43 KDTX 201610
RWRMI
MICHIGAN HOURLY REGIONAL WEATHER ROUNDUP
NATIONAL WEATHER SERVICE DETROIT/PONTIAC MI
1200 PM EDT FRI APR 20 2018

NOTE: "FAIR" INDICATES FEW OR NO CLOUDS BELOW 12,000 FEET WITH NO
SIGNIFICANT WEATHER AND/OR OBSTRUCTION TO VISIBILITY.

MIZ047>049-052>055-059>063-066>070-074>076-081>083-201700-
SOUTHEAST LOWER MICHIGAN

CITY           SKY/WX    TMP DP  RH WIND       PRES   REMARKS
ADRIAN         FAIR      50  19  29 N8        30.49S
ALMA           FAIR      48  21  33 N7        30.50S
ANN ARBOR      FAIR      51  19  28 MISG      30.47S
BAD AXE        FAIR      45  22  40 N8        30.48S
CARO           FAIR      46  24  41 N7        30.48S
DETROIT CITY   FAIR      49  19  30 MISG      30.48R
DETROIT        FAIR      50  19  29 VRB3      30.48R
FLINT          FAIR      48  25  40 N6        30.49R
GROSSE ILE     FAIR      47  26  43 S6        30.48R
HILLSDALE      FAIR      50  14  23 NE9       30.48R
HOWELL         FAIR      48  20  33 N10       30.48R

CITY           SKY/WX    TMP DP  RH WIND       PRES   REMARKS
JACKSON        FAIR      50  14  23 NW12G18   30.48S
LAMBERTVILLE   FAIR      50  22  33 N5        30.48S
LANSING        FAIR      50  20  30 N8        30.50R
LAPEER         FAIR      47  19  33 NW9       30.47S
MASON          FAIR      51  12  20 N7        30.49R
MONROE         FAIR      47  19  33 W3        30.47S
MT. CLEMENS    SUNNY     47  26  42 VRB7      30.46R
PONTIAC        FAIR      48  18  30 NW9       30.46R
PORT HOPE        N/A     39  32  76 NW5       30.47S
PORT HURON     FAIR      46  21  36 NE5       30.47R
TRI CITIES     FAIR      47  24  40 CALM      30.50R
MIDLAND        FAIR      48  23  37 N8        30.48S
TROY           FAIR      49  16  26 N8        30.48R
SAGINAW HB     FAIR      45  23  42 NE5       30.49R
$$
MIZ043>046-050>051-056>058-064>065-071>073-077>080-201700-
SOUTHWEST LOWER MICHIGAN

CITY           SKY/WX    TMP DP  RH WIND       PRES   REMARKS
BATTLE CREEK   FAIR      51  17  26 NW9       30.50R
BENTON HARBOR  FAIR      47  30  51 NW7       30.52R
BIG RAPIDS     FAIR      50  14  23 N7        30.48S
COLDWATER      FAIR      50  18  28 NE9       30.49S
FREMONT        FAIR      50   7  17 CALM      30.50S
HOLLAND        FAIR      52  20  28 VRB3      30.52R
GRAND RAPIDS   FAIR      52  21  29 VRB3      30.50R
IONIA          FAIR      50  18  27 W5        30.49S
KALAMAZOO      FAIR      53  15  22 N9        30.51R
LUDINGTON      FAIR      46  25  43 SW8       30.51R
MARSHALL       FAIR      52  14  22 N5        30.48S
MOUNT PLEASANT FAIR      49  21  33 NE3       30.48S
MUSKEGON       FAIR      52  24  33 W8        30.52R
SOUTH HAVEN    FAIR      48  30  50 W6        30.52S
$$
MIZ016>042-201700-
NORTHERN LOWER MICHIGAN

CITY           SKY/WX    TMP DP  RH WIND       PRES   REMARKS
ALPENA         FAIR      41  23  48 N8        30.49R
BEAVER ISLAND  FAIR      42  24  48 W8        30.49S
BELLAIRE       FAIR      44  18  36 S7        30.50S
CADILLAC       FAIR      47  16  29 N7        30.46R
CHARLEVOIX     FAIR      41  25  53 W8        30.52S
FRANKFORT      FAIR      46  18  32 W5        30.51R
GAYLORD        FAIR      44  13  28 CALM      30.46R
GRAYLING       FAIR      45  15  29 N3        30.46R
HARBOR SPRINGS FAIR      40  21  45 SW5       30.49R
HOUGHTON LAKE  FAIR      45  17  32 W6        30.47S
MANISTEE       FAIR      48  24  39 W7        30.51R
OSCODA         FAIR      41  22  46 E7        30.48R
PELLSTON       FAIR      46  17  31 CALM      30.48S
ROGERS CITY    FAIR      37  24  60 N3        30.50S
TRAVERSE CITY  FAIR      46  21  37 N3        30.48S
$$
MIZ007>008-015-201700-
EASTERN UPPER MICHIGAN

CITY           SKY/WX    TMP DP  RH WIND       PRES   REMARKS
KINROSS        FAIR      43  13  29 CALM      30.47S
MACKINAC ISLAN FAIR      42  14  32 CALM      30.47F
NEWBERRY       FAIR      46   8  22 CALM      30.46S
S. S. MARIE    FAIR      47  19  33 W6        30.46S
MUNISING         N/A     46  21  37 CALM      30.46S
$$
MIZ004>006-011>014-085-201700-
CENTRAL UPPER MICHIGAN

CITY           SKY/WX    TMP DP  RH WIND       PRES   REMARKS
MANISTIQUE     FAIR      40  16  37 S13       30.48S WCI  33
ESCANABA       FAIR      48  19  31 SE8       30.47F
MENOMINEE      FAIR      46  22  38 SE9       30.50R
SAWYER-GWINN   SUNNY     52   9  17 CALM      30.45S
$$
MIZ001>003-009>011-084-201700-
WESTERN UPPER MICHIGAN

CITY           SKY/WX    TMP DP  RH WIND       PRES   REMARKS
IRON MOUNTAIN  FAIR      54  12  18 W3        30.44S
HOUGHTON       FAIR      50  15  24 W5        30.44R
COPPER HARBOR    N/A     40  26  57 N3        30.44S
IRONWOOD       FAIR      50  17  27 W5        30.45F
$$

ABBREVIATIONS USED IN REMARKS
   TC - TEMPERATURE IN CELSIUS
  WCI - WIND CHILL INDEX
   HX - HEAT INDEX
  VSB - VISIBILITY





USA.gov is the U.S. government's official web portal to all federal, state and local government web resources and services.